Weather History for 43003 - January, 2013

Change the Weather History Date:

Wednesday, January 16, 2013

  Actual Average Record
Temperature  
Mean Temperature 73 °F -  
Max Temperature 87 °F 86 °F - ()
Min Temperature 59 °F 67 °F - ()
Cooling Degree Days 8    
Growing Degree Days 23 (Base 50)    
Moisture  
Dew Point 63 °F    
Average Humidity 64    
Maximum Humidity 90    
Minimum Humidity 36    
Precipitation  
Precipitation 0.00 in - - ()
Sea Level Pressure  
Sea Level Pressure 29.91 in    
Wind  
Wind Speed 2 mph ()    
Max Wind Speed 9 mph    
Max Gust Speed -    
Visibility 1.3 miles    
Events      
T = Trace of Precipitation, MM = Missing Value Source: Averaged Metar Reports

Daily Weather History Graph

Daily Weather History Graph

Search for Another Location

Airport or City:

Trip Planner

Search our weather history database for the weather conditions in past years. The results will help you decide how hot, cold, wet, or windy it might be!

Date:

Astronomy

Jan. 16, 2013 Rise Set
Actual Time 7:14 AM IST 6:21 PM IST
Civil Twilight 6:51 AM IST 6:45 PM IST
Nautical Twilight 6:24 AM IST 7:12 PM IST
Astronomical Twilight 5:57 AM IST 7:38 PM IST
Moon 10:24 AM IST (1/16) 10:54 PM IST (1/16)
Length of Visible Light 11h 53m
Length of Day
11h 07m
Waxing Crescent, 24% of the Moon is Illuminated
Jan 16
Waxing Crescent
Jan 19
First Quarter
Jan 27
Full
Feb 3
Last Quarter
Feb 10
New

Hourly Weather History & Observations

Time (IST) Temp. Heat Index Dew Point Humidity Pressure Visibility Wind Dir Wind Speed Gust Speed Precip Events Conditions
12:10 AM 71.6 °F - 64.4 °F 78% 29.92 in 1.1 mi Calm Calm - N/A   Smoke
12:40 AM 71.6 °F - 66.2 °F 83% 29.92 in 1.0 mi Calm Calm - N/A   Smoke
1:10 AM 71.6 °F - 66.2 °F 83% 29.92 in 0.9 mi Calm Calm - N/A   Smoke
1:40 AM 71.6 °F - 64.4 °F 78% 29.92 in 0.9 mi Calm Calm - N/A   Smoke
2:10 AM 71.6 °F - 64.4 °F 78% 29.92 in 1.1 mi Calm Calm - N/A   Smoke
2:30 AM 65 °F - 62 °F 87% 29.91 in 1 mi Calm Calm - -   Haze
2:40 AM 71.6 °F - 64.4 °F 78% 29.89 in 1.2 mi Calm Calm - N/A   Smoke
3:10 AM 69.8 °F - 62.6 °F 78% 29.89 in 1.6 mi Calm Calm - N/A   Haze
3:40 AM 69.8 °F - 62.6 °F 78% 29.89 in 1.6 mi Calm Calm - N/A   Haze
4:10 AM 69.8 °F - 64.4 °F 83% 29.92 in 1.2 mi Calm Calm - N/A   Haze
4:40 AM 71.6 °F - 62.6 °F 73% 29.92 in 1.1 mi Calm Calm - N/A   Haze
5:10 AM 69.8 °F - 62.6 °F 78% 29.92 in 1.3 mi Calm Calm - N/A   Haze
5:30 AM 63 °F - 60 °F 86% 29.91 in 1 mi Calm Calm - -   Haze
5:40 AM 71.6 °F - 60.8 °F 69% 29.92 in 1.4 mi NNE 4.6 mph - N/A   Haze
6:10 AM 71.6 °F - 60.8 °F 69% 29.92 in 1.6 mi SE 3.5 mph - N/A   Smoke
6:40 AM 69.8 °F - 59.0 °F 68% 29.92 in 1.0 mi Calm Calm - N/A   Smoke
7:40 AM 68.0 °F - 60.8 °F 78% 29.95 in 0.9 mi Calm Calm - N/A   Haze
8:10 AM 69.8 °F - 60.8 °F 73% 29.95 in 0.7 mi Calm Calm - N/A   Haze
8:30 AM 64 °F - 62 °F 90% 29.96 in 1 mi Calm Calm - -   Haze
8:40 AM 71.6 °F - 60.8 °F 69% 29.95 in 0.9 mi Calm Calm - N/A   Smoke
10:10 AM 80.6 °F 81.1 °F 59.0 °F 48% 29.98 in 1.0 mi ESE 3.5 mph - N/A   Smoke
10:40 AM 80.6 °F 81.8 °F 62.6 °F 54% 29.98 in 1.1 mi West 5.8 mph - N/A   Smoke
11:10 AM 82.4 °F 82.5 °F 59.0 °F 45% 29.95 in 1.1 mi WNW 8.1 mph - N/A   Smoke
11:30 AM 84 °F - 61 °F 36% 29.96 in 1 mi West 3.5 mph - -   Smoke
11:40 AM 80.6 °F 82.3 °F 64.4 °F 58% 29.95 in 1.3 mi WNW 6.9 mph - N/A   Smoke
12:40 PM 84.2 °F 85.0 °F 62.6 °F 48% 29.92 in 1.6 mi WNW 6.9 mph - N/A   Smoke
1:10 PM 84.2 °F 85.0 °F 62.6 °F 48% 29.89 in 1.6 mi WNW 9.2 mph - N/A   Smoke
2:10 PM 84.2 °F 85.0 °F 62.6 °F 48% 29.89 in 1.9 mi WSW 9.2 mph - N/A   Smoke
2:30 PM 86 °F - 64 °F 38% 29.88 in 1 mi NW 5.8 mph - -   Smoke
2:40 PM 86.0 °F 86.6 °F 62.6 °F 45% 29.86 in 1.9 mi WNW 6.9 mph - N/A   Smoke
3:10 PM 86.0 °F 86.1 °F 60.8 °F 43% 29.86 in 1.9 mi West 6.9 mph - N/A   Smoke
3:40 PM 86.0 °F 86.6 °F 62.6 °F 45% 29.86 in 1.9 mi West 6.9 mph - N/A   Smoke
4:10 PM 86.0 °F 86.6 °F 62.6 °F 45% 29.86 in 1.9 mi WNW 5.8 mph - N/A   Smoke
4:40 PM 86.0 °F 86.6 °F 62.6 °F 45% 29.86 in 1.9 mi WNW 4.6 mph - N/A   Smoke
5:10 PM 86.0 °F 86.1 °F 60.8 °F 43% 29.86 in 1.9 mi West 5.8 mph - N/A   Smoke
5:30 PM 84 °F - 63 °F 39% 29.87 in 1 mi North 5.8 mph - -   Smoke
5:40 PM 84.2 °F 84.4 °F 60.8 °F 45% 29.86 in 1.9 mi NW 3.5 mph - N/A   Smoke
6:10 PM 82.4 °F 83.4 °F 62.6 °F 51% 29.86 in 1.7 mi WNW 6.9 mph - N/A   Smoke
6:40 PM 80.6 °F 82.3 °F 64.4 °F 58% 29.89 in 1.6 mi NW 6.9 mph - N/A   Smoke
7:10 PM 78.8 °F - 66.2 °F 65% 29.89 in 1.6 mi NW 5.8 mph - N/A   Smoke
7:40 PM 77.0 °F - 66.2 °F 69% 29.89 in 1.6 mi NNW 5.8 mph - N/A   Smoke
8:10 PM 77.0 °F - 66.2 °F 69% 29.92 in 1.6 mi NNW 4.6 mph - N/A   Smoke
8:30 PM 75 °F - 67 °F 69% 29.92 in 1 mi North 6.9 mph - -   Haze
8:40 PM 77.0 °F - 64.4 °F 65% 29.92 in 1.6 mi NNE 5.8 mph - N/A   Smoke
9:10 PM 77.0 °F - 64.4 °F 65% 29.92 in 1.4 mi North 4.6 mph - N/A   Haze
9:40 PM 77.0 °F - 64.4 °F 65% 29.92 in 1.2 mi NNE 3.5 mph - N/A   Haze
10:40 PM 73.4 °F - 64.4 °F 73% 29.92 in 0.9 mi Calm Calm - N/A   Haze
11:10 PM 73.4 °F - 64.4 °F 73% 29.92 in 0.9 mi ESE 5.8 mph - N/A   Haze
11:30 PM 69 °F - 62 °F 71% 29.92 in 1 mi Calm Calm - -   Haze
11:40 PM 75.2 °F - 64.4 °F 69% 29.92 in 0.9 mi SE 5.8 mph - N/A   Haze